This demonstration page uses our WeatherBlox Daily Observations layout. Learn more.

Left ArrowRight Arrow

Hourly Observations for May 16, 2018

Temp ( °F °C ) Dew Point ( °F °C ) Humidity (%) Winds ( mph kmh ) Pressure ( in mb ) Visibility ( mi km ) Precip ( " mm )
12:15 am 00:15 Clear 57 13.9 52 11.1 83 83 SE 7 11 30.00 1016 10 16 N/A
12:35 am 00:35 Clear 59 14.8 53 11.5 81 81 SE 7 11 30.00 1016 10 16 N/A
12:55 am 00:55 Clear 57 13.7 52 11.1 84 84 SE 6 9 30.00 1016 10 16 N/A
1:15 am 01:15 Clear 56 13.5 53 11.5 88 88 SE 5 7 30.00 1016 10 16 N/A
1:35 am 01:35 Clear 58 14.6 53 11.6 82 82 SE 5 7 30.00 1016 10 16 N/A
1:55 am 01:55 Clear 58 14.6 53 11.6 82 82 SSE 3 6 30.00 1016 10 16 N/A
2:15 am 02:15 Clear 56 13.1 52 11.3 89 89 SSE 5 7 30.00 1016 10 16 N/A
2:35 am 02:35 Clear 57 13.9 53 11.7 87 87 SSE 6 9 30.00 1016 10 16 N/A
2:55 am 02:55 Clear 57 13.8 53 11.7 87 87 SSE 3 6 30.00 1016 10 16 N/A
3:15 am 03:15 Clear 57 13.9 53 11.7 87 87 SSE 5 7 29.97 1015 10 16 N/A
3:35 am 03:35 Clear 56 13.6 53 11.8 89 89 N N/A 29.97 1015 10 16 N/A
3:55 am 03:55 Clear 55 12.6 52 11.1 91 91 N N/A 30.03 1017 7 11 N/A
4:15 am 04:15 Clear 56 13.5 54 12.2 92 92 SSW 6 9 29.97 1015 10 16 N/A
4:35 am 04:35 Clear 55 12.5 52 11 91 91 N N/A 30.03 1017 10 16 N/A
4:55 am 04:55 Clear 55 13 54 12.2 95 95 S 5 7 30.00 1016 7 11 N/A
5:15 am 05:15 Clear 55 12.8 53 11.4 91 91 N N/A 30.03 1017 10 16 N/A
5:35 am 05:35 Clear 54 12 52 11.3 96 96 SSE 3 6 30.03 1017 7 11 N/A
5:55 am 05:55 Clear with Mist and Fog 52 11.1 51 10.7 97 97 N N/A 30.03 1017 5 8 N/A
6:15 am 06:15 Clear with Mist and Fog 53 11.9 53 11.5 97 97 N N/A 30.03 1017 5 8 N/A
6:35 am 06:35 Sunny with Mist and Fog 54 12.1 53 11.8 98 98 N N/A 30.03 1017 4 6 N/A
6:55 am 06:55 Sunny with Mist and Fog 53 11.5 52 11.2 98 98 N N/A 30.03 1017 3 5 N/A
7:15 am 07:15 Sunny with Mist and Fog 55 13 55 12.5 97 97 ESE 3 6 30.00 1016 4 6 N/A
7:35 am 07:35 Sunny with Mist and Fog 57 13.7 56 13.4 98 98 N N/A 30.00 1016 4 6 N/A
7:55 am 07:55 Sunny with Mist and Fog 59 15 58 14.2 95 95 N N/A 30.00 1016 5 8 N/A
8:15 am 08:15 Sunny 61 16.1 58 14.6 91 91 N N/A 30.00 1016 7 11 N/A
8:35 am 08:35 Sunny 63 17.2 59 15 87 87 SSE 3 6 29.97 1015 7 11 N/A
8:55 am 08:55 Sunny 66 18.7 59 15.2 80 80 S 5 7 30.00 1016 7 11 N/A
9:15 am 09:15 Sunny 67 19.6 59 15 75 75 S 6 9 30.00 1016 10 16 N/A
9:35 am 09:35 Sunny 70 20.9 59 15.1 70 70 SSE 8 13 29.97 1015 10 16 N/A
9:55 am 09:55 Sunny 71 21.5 58 14.5 65 65 S 7 11 29.97 1015 7 11 N/A
10:15 am 10:15 Sunny 72 22.4 58 14.6 61 61 S 12 19 29.97 1015 10 16 N/A
10:35 am 10:35 Sunny 72 22.4 58 14.5 61 61 S 10 17 29.97 1015 10 16 N/A
10:55 am 10:55 Sunny 73 22.8 58 14.6 60 60 S 9 15 29.97 1015 10 16 N/A
11:15 am 11:15 Sunny 74 23.6 59 14.8 58 58 SSW 9 15 29.97 1015 10 16 N/A
11:35 am 11:35 Sunny 75 23.9 60 15.3 59 59 S 10 17 29.94 1014 10 16 N/A
11:55 am 11:55 Partly Cloudy 76 24.2 59 14.9 56 56 SW 7 11 29.91 1013 10 16 N/A
12:15 pm 12:15 Partly Cloudy 75 24 58 14.7 56 56 SW 7 11 29.91 1013 10 16 N/A
12:35 pm 12:35 Partly Cloudy 76 24.5 57 14 52 52 SSE 6 9 29.91 1013 10 16 N/A
12:55 pm 12:55 Partly Cloudy 78 25.6 56 13.4 47 47 ESE 8 13 29.91 1013 10 16 N/A
1:15 pm 13:15 Partly Cloudy 77 25.2 56 13.2 47 47 SSE 8 13 29.91 1013 10 16 N/A
1:35 pm 13:35 Sunny 79 26.1 55 12.8 44 44 S 7 11 29.88 1012 10 16 N/A
1:55 pm 13:55 Sunny 78 25.8 54 12.1 43 43 N N/A 29.88 1012 10 16 N/A
2:15 pm 14:15 Sunny 80 26.4 53 11.8 40 40 N N/A 29.88 1012 10 16 N/A
2:35 pm 14:35 Partly Cloudy 80 26.6 53 11.8 40 40 ESE 5 7 29.88 1012 10 16 N/A
2:55 pm 14:55 Mostly Cloudy 81 27.2 52 11.3 37 37 S 6 9 29.85 1011 10 16 N/A
3:15 pm 15:15 Mostly Cloudy 80 26.7 53 11.4 38 38 SSE 6 9 29.88 1012 10 16 N/A
3:35 pm 15:35 Partly Cloudy 81 27.2 53 11.4 37 37 SSE 7 11 29.83 1010 10 16 N/A
3:55 pm 15:55 Partly Cloudy 82 27.5 53 11.5 37 37 SSE 7 11 29.83 1010 10 16 N/A
4:15 pm 16:15 Partly Cloudy 81 27.1 53 11.7 38 38 WSW 3 6 29.83 1010 10 16 N/A
4:35 pm 16:35 Sunny 82 28 53 11.7 36 36 S 7 11 29.83 1010 10 16 N/A
4:55 pm 16:55 Sunny 83 28.1 53 11.5 36 36 SE 7 11 29.83 1010 10 16 N/A
5:15 pm 17:15 Sunny 81 27.1 52 11.3 37 37 SE 3 6 29.83 1010 10 16 N/A
5:35 pm 17:35 Partly Cloudy 82 28 53 11.9 37 37 SE 10 17 29.83 1010 10 16 N/A
5:55 pm 17:55 Sunny 79 26.1 52 11.3 40 40 ESE 9 15 29.83 1010 10 16 N/A
6:15 pm 18:15 Sunny 81 27 53 11.5 38 38 SE 10 17 29.80 1009 10 16 N/A
6:35 pm 18:35 Sunny 81 27.2 52 11.2 37 37 ESE 12 19 29.80 1009 10 16 N/A
6:55 pm 18:55 Sunny 81 27 52 11.1 37 37 ESE 10 17 29.80 1009 10 16 N/A
7:15 pm 19:15 Sunny 81 27 51 10.7 36 36 SE 8 13 29.80 1009 10 16 N/A
7:35 pm 19:35 Sunny 80 26.4 52 11.2 39 39 SE 10 17 29.80 1009 10 16 N/A
7:55 pm 19:55 Sunny 78 25.7 52 11.1 40 40 ESE 10 17 29.83 1010 10 16 N/A
8:15 pm 20:15 Sunny 76 24.6 52 11.1 43 43 ESE 9 15 29.83 1010 10 16 N/A
8:35 pm 20:35 Sunny 73 22.7 53 11.5 49 49 ESE 9 15 29.83 1010 10 16 N/A
8:55 pm 20:55 Clear 71 21.5 53 11.5 53 53 ESE 8 13 29.88 1012 10 16 N/A
9:15 pm 21:15 Clear 68 20 53 11.7 59 59 SE 8 13 29.88 1012 10 16 N/A
9:35 pm 21:35 Clear 67 19.4 53 11.5 60 60 SE 8 13 29.88 1012 10 16 N/A
9:55 pm 21:55 Clear 65 18.5 52 11.3 63 63 ESE 9 15 29.91 1013 10 16 N/A
10:15 pm 22:15 Clear 66 18.7 52 10.9 61 61 SE 9 15 29.91 1013 10 16 N/A
10:35 pm 22:35 Clear 64 17.7 51 10.8 64 64 ESE 8 13 29.91 1013 10 16 N/A
10:55 pm 22:55 Clear 63 17.3 52 11.1 67 67 ESE 7 11 29.91 1013 10 16 N/A
11:15 pm 23:15 Clear 65 18.1 51 10.7 62 62 SE 9 15 29.91 1013 10 16 N/A
11:35 pm 23:35 Clear 64 17.5 51 10.8 65 65 SE 8 13 29.91 1013 10 16 N/A
11:55 pm 23:55 Clear 63 17.3 52 11.1 67 67 SSE 8 13 29.91 1013 10 16 N/A

Powered by AerisWeather